STARLINK-3750, 52311

Orbit data source: Space-Track

STARLINK-3750, 52311 is a payload satellite owned by SpaceX/Seattle (US) in LEO that was launched on Thu, 21 Apr 2022 UTC via an FALCON 9 launch vehicle from the Air Force Eastern Test Range (AFETR). Payload-class satellites include a variety of spacecraft equipped with specific instruments for various scientific and technological missions. These include communications satellites like Starlink; space stations such as the ISS; scientific satellites like the Hubble; Earth observation satellites from companies like Planet Labs, Umbra, and HawkEye 360; GPS; miniature CubeSats for education and research; and military/defense satellites.

Loading next visibility...
Identifier
52311, 2022-041BC
Orbit
LEO
Country
Flag of USUS
Related business
Manufacturer
SpaceX/Seattle
Mission
Operational Commercial Communications
Bus & Motor
STARLINK, Unknown motor
Mass
297 kg wet, ~275 kg dry
Launch date (UTC)
2022-04-21 (4 years ago)
Launch vehicle
FALCON 9
Launch site
Air Force Eastern Test Range (AFETR)
Object type
Payload
Rocket body
Debris
Shape & HBR
Box + 1 Pan, 10.1 m
Radar Cross Section
11.087 m², Large (>1 m²)

Expand to show TLE details & history
Last TLE update: 18 hours ago

TLE from 18 hours ago
0 STARLINK-3750
1 52311U 22041BC  26175.14316340 -.00000414  00000-0 -79488-5 0  9996
2 52311  53.1608 331.0935 0001243  87.2168 272.8966 15.08838287231931
Epoch: 2026-06-24T03:26Z
TLE epoch observation values (Epoch: 2026-06-24T03:26:09.317Z)
Latitude
-0.00001°
Longitude
7.25006°
Altitude
540.597 km
Speed
7.593 km/s
True Right ascension
22h 04m 22s
True Declination
0° 00' 00"
Sunlit
Object was in full shadow at epoch
Visualization orbit readout
Latitude
Unknown
Longitude
Unknown
Altitude
Unknown
Speed
Unknown
Apparent Right ascension
Unknown
Apparent Declination
Unknown
Sunlit
N/A
Visualization observer readout
Local Sidereal Time
08:57:10
Azimuth
Unknown
Elevation
Unknown
Doppler factor
Unknown
Orbital elements
Apogee altitude
540.863 km
Perigee altitude
539.143 km
Semi-major axis
6,918.14 km
Eccentricity
0.00012
Inclination
53.1608°
RAAN
331.0935°
Arg. of periapsis
87.2168°
True anomaly
272.88237°
Mean anomaly
272.8966°
Eccentric anomaly
272.88949°
Mean motion
3.77189 °/min
Orbital period
95.44 mins
BSTAR
-0.0000079488
Loading maneuver chart data...
Computing Atmospheric mass density...

Documentation

Showing up to 5 results
|